Regional Weather Roundup
Issued by NWS

Home | Current Version | Previous Version | Graphics & Text | Print | Product List | Glossary On
Versions: 1 2 3 4 5 6 7 8 9 10 11 12 13 14 15 16 17 18 19 20 21 22 23 24 25 26 27 28 29 30 31 32 33 34 35 36 37 38 39 40 41 42 43 44 45 46 47 48 49 50
000
ASUS44 KMEG 250410
RWRTN
TENNESSEE HOURLY STATE WEATHER ROUNDUP
NATIONAL WEATHER SERVICE MEMPHIS TN
1000 PM CST FRI FEB 24 2017

TNZ002-004-019-021-049-052-054-088>092-250500-
WEST TENNESSEE

CITY           SKY/WX    TMP DP  RH WIND       PRES   REMARKS
MEMPHIS INTL   MOCLDY    55  36  48 NW13      29.82R
NWS MEMPHIS      N/A     56 N/A N/A MISG        N/A
JACKSON        MOCLDY    59  43  55 NW15G24   29.79R
UNION CITY     CLOUDY    54  27  35 W13       29.79R
PARIS          MOCLDY    54  36  50 W8        29.76R
HUNTINGDON     CLOUDY    57  36  44 NW9G18    29.76R
$$

TNZ008-025-027-028-033-062-065-066-250500-
NORTH MIDDLE TENNESSEE

CITY           SKY/WX    TMP DP  RH WIND       PRES   REMARKS
NASHVILLE      CLOUDY    67  51  56 W7        29.67F
PORTLAND       CLOUDY    64  52  63 W7G13     29.66F
CLARKSVILLE    PTCLDY    61  46  57 NW16G26   29.69R
SMYRNA         CLOUDY    62  58  86 S3        29.69S THUNDER
COOKEVILLE     MOCLDY    66  55  68 SW6       29.65S
GALLATIN       CLOUDY    68  52  56 SW5       29.68F
CROSSVILLE     CLEAR     65  51  60 S5        29.71F
$$

TNZ061-075-076-078-094-096-097-250500-
SOUTH MIDDLE TENNESSEE

CITY           SKY/WX    TMP DP  RH WIND       PRES   REMARKS
FAYETTEVILLE   FOG       57  55  94 W17G45    29.71R VSB 3/4
TULLAHOMA      MOCLDY    68  52  56 W10       29.71R
WINCHESTER     PTCLDY    70  54  56 S13       29.69S
MCMINNVILLE    PTCLDY    70  55  60 W15       29.70R
COLUMBIA       MOCLDY    64  63  94 W6        29.68R
SHELBYVILLE    MOCLDY    61  61 100 CALM      29.71R
$$

TNZ017-018-042-046-047-250500-
NORTHEAST TENNESSEE

CITY           SKY/WX    TMP DP  RH WIND       PRES   REMARKS
TRI CITIES     PTCLDY    65  50  58 S9        29.76S
ELIZABETHTON   PTCLDY    63  50  63 E3        29.77F
$$

TNZ012-013-036-069-073-074-250500-
CENTRAL EAST TENNESSEE

CITY           SKY/WX    TMP DP  RH WIND       PRES   REMARKS
KNOXVILLE      PTCLDY    66  50  56 S7        29.69F
OAK RIDGE      CLOUDY    70  51  51 VRB5      29.69F
GATLINBURG     MOCLDY    68  48  49 S5        29.71F
MORRISTOWN     CLEAR     66  50  55 S7        29.71F
JACKSBORO      CLOUDY    70  52  52 S16G22    29.70F
$$

TNZ083-085-099-250500-
SOUTHEAST TENNESSEE

CITY           SKY/WX    TMP DP  RH WIND       PRES   REMARKS
CHATTANOOGA    MOCLDY    70  53  54 S7        29.71F
$$

SKY/WX REPORTED AS FAIR MEANS FEW OR NO CLOUDS BELOW
12 THOUSAND FEET.





USA.gov is the U.S. government's official web portal to all federal, state and local government web resources and services.